Year,Month,Day,Hour,Minute,Value (Times are PST for windspeed in km/hr)
2021,10,16,00,00,16.40
2021,10,16,00,01,14.80
2021,10,16,00,02,14.20
2021,10,16,00,03,11.40
2021,10,16,00,04,10.70
2021,10,16,00,05,12.10
2021,10,16,00,06,14.00
2021,10,16,00,07,11.20
2021,10,16,00,08,10.90
2021,10,16,00,09,12.50
2021,10,16,00,10,14.00
2021,10,16,00,11,11.70
2021,10,16,00,12,12.60
2021,10,16,00,13,14.00
2021,10,16,00,14,14.20
2021,10,16,00,15,13.20
2021,10,16,00,16,10.40
2021,10,16,00,17,10.10
2021,10,16,00,18,12.30
2021,10,16,00,19,10.70
2021,10,16,00,20,11.30
2021,10,16,00,21,12.20
2021,10,16,00,22,12.60
2021,10,16,00,23,13.30
2021,10,16,00,24,11.40
2021,10,16,00,25,12.70
2021,10,16,00,26,11.40
2021,10,16,00,27,11.30
2021,10,16,00,28,8.30
2021,10,16,00,29,9.30
2021,10,16,00,30,9.80
2021,10,16,00,31,10.20
2021,10,16,00,32,7.50
2021,10,16,00,33,5.00
2021,10,16,00,34,4.30
2021,10,16,00,35,4.30
2021,10,16,00,36,7.80
2021,10,16,00,37,7.00
2021,10,16,00,38,5.60
2021,10,16,00,39,5.90
2021,10,16,00,40,6.60
2021,10,16,00,41,9.50
2021,10,16,00,42,13.40
2021,10,16,00,43,9.40
2021,10,16,00,44,15.00
2021,10,16,00,45,17.40
2021,10,16,00,46,18.20
2021,10,16,00,47,15.20
2021,10,16,00,48,13.70
2021,10,16,00,49,13.70
2021,10,16,00,50,15.40
2021,10,16,00,51,7.30
2021,10,16,00,52,9.10
2021,10,16,00,53,7.90
2021,10,16,00,54,9.80
2021,10,16,00,55,8.70
2021,10,16,00,56,9.70
2021,10,16,00,57,14.20
2021,10,16,00,58,14.40
2021,10,16,00,59,9.80
2021,10,16,01,00,11.10
2021,10,16,01,01,15.90
2021,10,16,01,02,12.10
2021,10,16,01,03,9.10
2021,10,16,01,04,12.70
2021,10,16,01,05,19.30
2021,10,16,01,06,16.40
2021,10,16,01,07,22.20
2021,10,16,01,08,20.40
2021,10,16,01,09,20.50
2021,10,16,01,10,20.00
2021,10,16,01,11,22.50
2021,10,16,01,12,19.80
2021,10,16,01,13,23.50
2021,10,16,01,14,22.00
2021,10,16,01,15,17.60
2021,10,16,01,16,17.20
2021,10,16,01,17,19.90
2021,10,16,01,18,19.00
2021,10,16,01,19,17.90
2021,10,16,01,20,20.30
2021,10,16,01,21,16.40
2021,10,16,01,22,20.90
2021,10,16,01,23,23.00
2021,10,16,01,24,20.50
2021,10,16,01,25,20.90
2021,10,16,01,26,20.60
2021,10,16,01,27,18.20
2021,10,16,01,28,19.40
2021,10,16,01,29,21.30
2021,10,16,01,30,20.60
2021,10,16,01,31,20.30
2021,10,16,01,32,14.80
2021,10,16,01,33,14.20
2021,10,16,01,34,15.20
2021,10,16,01,35,15.70
2021,10,16,01,36,14.60
2021,10,16,01,37,13.40
2021,10,16,01,38,12.80
2021,10,16,01,39,15.80
2021,10,16,01,40,21.50
2021,10,16,01,41,14.80
2021,10,16,01,42,15.40
2021,10,16,01,43,15.60
2021,10,16,01,44,15.20
2021,10,16,01,45,15.00
2021,10,16,01,46,14.70
2021,10,16,01,47,13.90
2021,10,16,01,48,11.80
2021,10,16,01,49,12.90
2021,10,16,01,50,15.60
2021,10,16,01,51,9.30
2021,10,16,01,52,6.30
2021,10,16,01,53,7.20
2021,10,16,01,54,4.80
2021,10,16,01,55,3.90
2021,10,16,01,56,6.30
2021,10,16,01,57,3.30
2021,10,16,01,58,2.30
2021,10,16,01,59,9.30
2021,10,16,02,00,8.30
2021,10,16,02,01,8.30
2021,10,16,02,02,10.90
2021,10,16,02,03,3.20
2021,10,16,02,04,3.80
2021,10,16,02,05,3.60
2021,10,16,02,06,3.60
2021,10,16,02,07,3.30
2021,10,16,02,08,6.10
2021,10,16,02,09,10.70
2021,10,16,02,10,8.10
2021,10,16,02,11,8.20
2021,10,16,02,12,8.00
2021,10,16,02,13,11.10
2021,10,16,02,14,8.30
2021,10,16,02,15,14.10
2021,10,16,02,16,15.70
2021,10,16,02,17,17.20
2021,10,16,02,18,16.70
2021,10,16,02,19,13.00
2021,10,16,02,20,13.20
2021,10,16,02,21,15.80
2021,10,16,02,22,14.90
2021,10,16,02,23,12.80
2021,10,16,02,24,11.00
2021,10,16,02,25,12.60
2021,10,16,02,26,14.40
2021,10,16,02,27,10.40
2021,10,16,02,28,12.20
2021,10,16,02,29,11.10
2021,10,16,02,30,12.60
2021,10,16,02,31,15.40
2021,10,16,02,32,17.30
2021,10,16,02,33,16.90
2021,10,16,02,34,16.60
2021,10,16,02,35,14.10
2021,10,16,02,36,18.80
2021,10,16,02,37,20.70
2021,10,16,02,38,24.70
2021,10,16,02,39,20.20
2021,10,16,02,40,24.60
2021,10,16,02,41,25.30
2021,10,16,02,42,26.00
2021,10,16,02,43,23.70
2021,10,16,02,44,22.00
2021,10,16,02,45,23.20
2021,10,16,02,46,25.30
2021,10,16,02,47,25.10
2021,10,16,02,48,25.80
2021,10,16,02,49,27.10
2021,10,16,02,50,23.00
2021,10,16,02,51,26.00
2021,10,16,02,52,32.20
2021,10,16,02,53,27.10
2021,10,16,02,54,26.70
2021,10,16,02,55,26.40
2021,10,16,02,56,26.90
2021,10,16,02,57,28.50
2021,10,16,02,58,27.10
2021,10,16,02,59,29.40
2021,10,16,03,00,30.10
2021,10,16,03,01,26.30
2021,10,16,03,02,30.70
2021,10,16,03,03,29.30
2021,10,16,03,04,29.10
2021,10,16,03,05,29.10
2021,10,16,03,06,26.80
2021,10,16,03,07,26.50
2021,10,16,03,08,26.10
2021,10,16,03,09,26.40
2021,10,16,03,10,24.20
2021,10,16,03,11,23.40
2021,10,16,03,12,26.10
2021,10,16,03,13,23.60
2021,10,16,03,14,23.10
2021,10,16,03,15,22.40
2021,10,16,03,16,24.50
2021,10,16,03,17,25.80
2021,10,16,03,18,26.90
2021,10,16,03,19,24.10
2021,10,16,03,20,26.80
2021,10,16,03,21,24.80
2021,10,16,03,22,31.10
2021,10,16,03,23,28.60
2021,10,16,03,24,27.40
2021,10,16,03,25,26.10
2021,10,16,03,26,29.20
2021,10,16,03,27,31.40
2021,10,16,03,28,25.50
2021,10,16,03,29,25.20
2021,10,16,03,30,28.00
2021,10,16,03,31,26.60
2021,10,16,03,32,26.70
2021,10,16,03,33,23.60
2021,10,16,03,34,25.00
2021,10,16,03,35,24.20
2021,10,16,03,36,22.00
2021,10,16,03,37,24.40
2021,10,16,03,38,20.80
2021,10,16,03,39,20.20
2021,10,16,03,40,17.80
2021,10,16,03,41,21.80
2021,10,16,03,42,23.60
2021,10,16,03,43,23.40
2021,10,16,03,44,22.40
2021,10,16,03,45,22.90
2021,10,16,03,46,20.90
2021,10,16,03,47,21.70
2021,10,16,03,48,21.30
2021,10,16,03,49,21.20
2021,10,16,03,50,20.30
2021,10,16,03,51,19.40
2021,10,16,03,52,17.00
2021,10,16,03,53,17.00
2021,10,16,03,54,18.00
2021,10,16,03,55,20.10
2021,10,16,03,56,18.90
2021,10,16,03,57,17.60
2021,10,16,03,58,17.50
2021,10,16,03,59,20.80
2021,10,16,04,00,21.80
2021,10,16,04,01,16.10
2021,10,16,04,02,19.00
2021,10,16,04,03,20.20
2021,10,16,04,04,20.00
2021,10,16,04,05,23.80
2021,10,16,04,06,24.00
2021,10,16,04,07,21.30
2021,10,16,04,08,19.10
2021,10,16,04,09,19.60
2021,10,16,04,10,23.00
2021,10,16,04,11,21.30
2021,10,16,04,12,20.90
2021,10,16,04,13,22.10
2021,10,16,04,14,23.10
2021,10,16,04,15,21.00
2021,10,16,04,16,21.70
2021,10,16,04,17,18.40
2021,10,16,04,18,25.20
2021,10,16,04,19,21.00
2021,10,16,04,20,23.50
2021,10,16,04,21,27.40
2021,10,16,04,22,21.80
2021,10,16,04,23,23.50
2021,10,16,04,24,25.00
2021,10,16,04,25,27.00
2021,10,16,04,26,23.60
2021,10,16,04,27,23.70
2021,10,16,04,28,25.80
2021,10,16,04,29,25.20
2021,10,16,04,30,27.70
2021,10,16,04,31,23.00
2021,10,16,04,32,24.30
2021,10,16,04,33,23.80
2021,10,16,04,34,21.70
2021,10,16,04,35,27.00
2021,10,16,04,36,27.20
2021,10,16,04,37,30.00
2021,10,16,04,38,27.50
2021,10,16,04,39,26.80
2021,10,16,04,40,23.50
2021,10,16,04,41,25.10
2021,10,16,04,42,24.10
2021,10,16,04,43,23.60
2021,10,16,04,44,22.10
2021,10,16,04,45,21.70
2021,10,16,04,46,21.30
2021,10,16,04,47,24.60
2021,10,16,04,48,22.70
2021,10,16,04,49,25.40
2021,10,16,04,50,23.30
2021,10,16,04,51,25.10
2021,10,16,04,52,26.70
2021,10,16,04,53,25.90
2021,10,16,04,54,24.60
2021,10,16,04,55,26.80
2021,10,16,04,56,25.30
2021,10,16,04,57,28.20
2021,10,16,04,58,23.70
2021,10,16,04,59,22.80
2021,10,16,05,00,26.80
2021,10,16,05,01,32.60
2021,10,16,05,02,27.60
2021,10,16,05,03,25.90
2021,10,16,05,04,26.60
2021,10,16,05,05,26.90
2021,10,16,05,06,25.60
2021,10,16,05,07,25.40
2021,10,16,05,08,28.40
2021,10,16,05,09,30.50
2021,10,16,05,10,28.70
2021,10,16,05,11,26.90
2021,10,16,05,12,27.60
2021,10,16,05,13,30.20
2021,10,16,05,14,26.10
2021,10,16,05,15,28.10
2021,10,16,05,16,26.70
2021,10,16,05,17,27.70
2021,10,16,05,18,32.90
2021,10,16,05,19,33.90
2021,10,16,05,20,30.10
2021,10,16,05,21,30.50
2021,10,16,05,22,28.10
2021,10,16,05,23,29.70
2021,10,16,05,24,30.80
2021,10,16,05,25,35.20
2021,10,16,05,26,34.30
2021,10,16,05,27,32.40
2021,10,16,05,28,26.50
2021,10,16,05,29,26.80
2021,10,16,05,30,35.70
2021,10,16,05,31,33.40
2021,10,16,05,32,29.00
2021,10,16,05,33,31.90
2021,10,16,05,34,29.90
2021,10,16,05,35,30.20
2021,10,16,05,36,32.70
2021,10,16,05,37,35.70
2021,10,16,05,38,31.60
2021,10,16,05,39,30.30
2021,10,16,05,40,33.00
2021,10,16,05,41,32.40
2021,10,16,05,42,29.90
2021,10,16,05,43,30.80
2021,10,16,05,44,33.90
2021,10,16,05,45,29.30
2021,10,16,05,46,29.30
2021,10,16,05,47,31.80
2021,10,16,05,48,26.60
2021,10,16,05,49,30.60
2021,10,16,05,50,28.90
2021,10,16,05,51,30.20
2021,10,16,05,52,31.80
2021,10,16,05,53,27.00
2021,10,16,05,54,24.70
2021,10,16,05,55,25.90
2021,10,16,05,56,28.00
2021,10,16,05,57,27.30
2021,10,16,05,58,30.60
2021,10,16,05,59,26.10
2021,10,16,06,00,25.50
2021,10,16,06,01,23.70
2021,10,16,06,02,28.90
2021,10,16,06,03,27.40
2021,10,16,06,04,26.80
2021,10,16,06,05,23.70
2021,10,16,06,06,22.40
2021,10,16,06,07,25.90
2021,10,16,06,08,28.80
2021,10,16,06,09,28.70
2021,10,16,06,10,27.00
2021,10,16,06,11,28.70
2021,10,16,06,12,28.30
2021,10,16,06,13,32.50
2021,10,16,06,14,27.90
2021,10,16,06,15,23.80
2021,10,16,06,16,23.20
2021,10,16,06,17,28.10
2021,10,16,06,18,30.00
2021,10,16,06,19,24.30
2021,10,16,06,20,23.50
2021,10,16,06,21,27.60
2021,10,16,06,22,28.00
2021,10,16,06,23,29.10
2021,10,16,06,24,32.40
2021,10,16,06,25,26.50
2021,10,16,06,26,27.30
2021,10,16,06,27,32.80
2021,10,16,06,28,26.30
2021,10,16,06,29,26.40
2021,10,16,06,30,29.10
2021,10,16,06,31,25.70
2021,10,16,06,32,28.40
2021,10,16,06,33,24.40
2021,10,16,06,34,27.00
2021,10,16,06,35,23.50
2021,10,16,06,36,21.80
2021,10,16,06,37,26.40
2021,10,16,06,38,26.40
2021,10,16,06,39,21.30
2021,10,16,06,40,25.00
2021,10,16,06,41,25.60
2021,10,16,06,42,28.90
2021,10,16,06,43,27.70
2021,10,16,06,44,25.10
2021,10,16,06,45,23.20
2021,10,16,06,46,26.60
2021,10,16,06,47,24.90
2021,10,16,06,48,27.60
2021,10,16,06,49,23.40
2021,10,16,06,50,23.90
2021,10,16,06,51,25.00
2021,10,16,06,52,23.70
2021,10,16,06,53,30.40
2021,10,16,06,54,29.50
2021,10,16,06,55,33.30
2021,10,16,06,56,27.20
2021,10,16,06,57,32.10
2021,10,16,06,58,29.60
2021,10,16,06,59,27.70
2021,10,16,07,00,32.10
2021,10,16,07,01,26.10
2021,10,16,07,02,28.00
2021,10,16,07,03,27.20
2021,10,16,07,04,29.20
2021,10,16,07,05,28.20
2021,10,16,07,06,30.10
2021,10,16,07,07,30.80
2021,10,16,07,08,27.10
2021,10,16,07,09,27.10
2021,10,16,07,10,29.50
2021,10,16,07,11,31.60
2021,10,16,07,12,30.10
2021,10,16,07,13,29.60
2021,10,16,07,14,34.00
2021,10,16,07,15,33.30
2021,10,16,07,16,32.10
2021,10,16,07,17,31.00
2021,10,16,07,18,34.00
2021,10,16,07,19,30.30
2021,10,16,07,20,32.70
2021,10,16,07,21,36.70
2021,10,16,07,22,31.40
2021,10,16,07,23,33.00
2021,10,16,07,24,31.90
2021,10,16,07,25,30.90
2021,10,16,07,26,29.50
2021,10,16,07,27,29.80
2021,10,16,07,28,29.00
2021,10,16,07,29,30.40
2021,10,16,07,30,31.10
2021,10,16,07,31,30.60
2021,10,16,07,32,28.40
2021,10,16,07,33,28.00
2021,10,16,07,34,28.80
2021,10,16,07,35,27.50
2021,10,16,07,36,25.50
2021,10,16,07,37,25.70
2021,10,16,07,38,29.00
2021,10,16,07,39,27.60
2021,10,16,07,40,27.30
2021,10,16,07,41,24.90
2021,10,16,07,42,22.90
2021,10,16,07,43,20.70
2021,10,16,07,44,20.70
2021,10,16,07,45,17.40
2021,10,16,07,46,20.70
2021,10,16,07,47,19.90
2021,10,16,07,48,21.60
2021,10,16,07,49,23.60
2021,10,16,07,50,23.40
2021,10,16,07,51,23.30
2021,10,16,07,52,26.60
2021,10,16,07,53,18.40
2021,10,16,07,54,19.80
2021,10,16,07,55,20.30
2021,10,16,07,56,21.70
2021,10,16,07,57,19.70
2021,10,16,07,58,22.10
2021,10,16,07,59,21.30
2021,10,16,08,00,22.00
2021,10,16,08,01,20.90
2021,10,16,08,02,29.90
2021,10,16,08,03,28.90
2021,10,16,08,04,21.30
2021,10,16,08,05,18.70
2021,10,16,08,06,22.30
2021,10,16,08,07,23.60
2021,10,16,08,08,26.00
2021,10,16,08,09,21.30
2021,10,16,08,10,22.40
2021,10,16,08,11,23.40
2021,10,16,08,12,25.50
2021,10,16,08,13,23.10
2021,10,16,08,14,21.30
2021,10,16,08,15,23.60
2021,10,16,08,16,22.30
2021,10,16,08,17,21.30
2021,10,16,08,18,23.30
2021,10,16,08,19,22.40
2021,10,16,08,20,21.00
2021,10,16,08,21,21.50
2021,10,16,08,22,20.70
2021,10,16,08,23,23.30
2021,10,16,08,24,21.70
2021,10,16,08,25,20.90
2021,10,16,08,26,18.80
2021,10,16,08,27,17.10
2021,10,16,08,28,14.60
2021,10,16,08,29,16.70
2021,10,16,08,30,17.00
2021,10,16,08,31,13.20
2021,10,16,08,32,14.60
2021,10,16,08,33,12.10
2021,10,16,08,34,12.60
2021,10,16,08,35,12.20
2021,10,16,08,36,12.30
2021,10,16,08,37,10.70
2021,10,16,08,38,8.10
2021,10,16,08,39,8.40
2021,10,16,08,40,15.10
2021,10,16,08,41,14.90
2021,10,16,08,42,14.40
2021,10,16,08,43,15.50
2021,10,16,08,44,14.80
2021,10,16,08,45,8.60
2021,10,16,08,46,9.20
2021,10,16,08,47,11.40
2021,10,16,08,48,6.10
2021,10,16,08,49,13.50
2021,10,16,08,50,7.40
2021,10,16,08,51,10.40
2021,10,16,08,52,9.40
2021,10,16,08,53,8.60
2021,10,16,08,54,9.10
2021,10,16,08,55,7.80
2021,10,16,08,56,6.60
2021,10,16,08,57,5.80
2021,10,16,08,58,5.10
2021,10,16,08,59,7.10
2021,10,16,09,00,3.50
2021,10,16,09,01,4.20
2021,10,16,09,02,3.70
2021,10,16,09,03,3.60
2021,10,16,09,04,4.90
2021,10,16,09,05,3.00
2021,10,16,09,06,2.00
2021,10,16,09,07,4.30
2021,10,16,09,08,6.10
2021,10,16,09,09,4.10
2021,10,16,09,10,4.70
2021,10,16,09,11,2.30
2021,10,16,09,12,4.70
2021,10,16,09,13,4.80
2021,10,16,09,14,4.20
2021,10,16,09,15,3.00
2021,10,16,09,16,3.20
2021,10,16,09,17,3.30
2021,10,16,09,18,3.80
2021,10,16,09,19,8.20
2021,10,16,09,20,8.60
2021,10,16,09,21,8.60
2021,10,16,09,22,6.70
2021,10,16,09,23,6.60
2021,10,16,09,24,4.00
2021,10,16,09,25,3.20
2021,10,16,09,26,7.70
2021,10,16,09,27,7.30
2021,10,16,09,28,5.70
2021,10,16,09,29,4.20
2021,10,16,09,30,2.30
2021,10,16,09,31,4.20
2021,10,16,09,32,2.00
2021,10,16,09,33,2.70
2021,10,16,09,34,5.30
2021,10,16,09,35,6.40
2021,10,16,09,36,7.20
2021,10,16,09,37,9.60
2021,10,16,09,38,12.50
2021,10,16,09,39,9.00
2021,10,16,09,40,7.90
2021,10,16,09,41,6.20
2021,10,16,09,42,6.30
2021,10,16,09,43,4.50
2021,10,16,09,44,9.80
2021,10,16,09,45,10.00
2021,10,16,09,46,6.00
2021,10,16,09,47,7.20
2021,10,16,09,48,7.50
2021,10,16,09,49,6.40
2021,10,16,09,50,8.90
2021,10,16,09,51,7.80
2021,10,16,09,52,7.60
2021,10,16,09,53,10.30
2021,10,16,09,54,5.40
2021,10,16,09,55,6.20
2021,10,16,09,56,9.00
2021,10,16,09,57,13.00
2021,10,16,09,58,11.50
2021,10,16,09,59,11.60
2021,10,16,10,00,10.80
2021,10,16,10,01,11.60
2021,10,16,10,02,10.00
2021,10,16,10,03,8.30
2021,10,16,10,04,9.50
2021,10,16,10,05,9.20
2021,10,16,10,06,8.80
2021,10,16,10,07,11.60
2021,10,16,10,08,10.30
2021,10,16,10,09,9.50
2021,10,16,10,10,9.80
2021,10,16,10,11,9.20
2021,10,16,10,12,10.80
2021,10,16,10,13,10.30
2021,10,16,10,14,8.90
2021,10,16,10,15,5.40
2021,10,16,10,16,5.20
2021,10,16,10,17,9.60
2021,10,16,10,18,9.20
2021,10,16,10,19,8.90
2021,10,16,10,20,8.10
2021,10,16,10,21,4.80
2021,10,16,10,22,7.90
2021,10,16,10,23,7.80
2021,10,16,10,24,6.20
2021,10,16,10,25,7.50
2021,10,16,10,26,9.00
2021,10,16,10,27,9.70
2021,10,16,10,28,8.90
2021,10,16,10,29,5.30
2021,10,16,10,30,3.50
2021,10,16,10,31,3.20
2021,10,16,10,32,5.40
2021,10,16,10,33,8.00
2021,10,16,10,34,9.60
2021,10,16,10,35,8.20
2021,10,16,10,36,5.60
2021,10,16,10,37,4.80
2021,10,16,10,38,3.80
2021,10,16,10,39,6.20
2021,10,16,10,40,6.30
2021,10,16,10,41,7.30
2021,10,16,10,42,12.50
2021,10,16,10,43,10.50
2021,10,16,10,44,11.30
2021,10,16,10,45,9.50
2021,10,16,10,46,10.50
2021,10,16,10,47,5.70
2021,10,16,10,48,5.40
2021,10,16,10,49,9.90
2021,10,16,10,50,4.90
2021,10,16,10,51,2.40
2021,10,16,10,52,9.40
2021,10,16,10,53,13.00
2021,10,16,10,54,6.50
2021,10,16,10,55,6.30
2021,10,16,10,56,5.10
2021,10,16,10,57,10.40
2021,10,16,10,58,10.80
2021,10,16,10,59,12.40
2021,10,16,11,00,12.80
2021,10,16,11,01,11.40
2021,10,16,11,02,8.90
2021,10,16,11,03,10.00
2021,10,16,11,04,14.00
2021,10,16,11,05,12.30
2021,10,16,11,06,10.60
2021,10,16,11,07,4.20
2021,10,16,11,08,3.60
2021,10,16,11,09,4.10
2021,10,16,11,10,3.60
2021,10,16,11,11,4.00
2021,10,16,11,12,5.00
2021,10,16,11,13,5.10
2021,10,16,11,14,4.90
2021,10,16,11,15,5.90
2021,10,16,11,16,4.70
2021,10,16,11,17,7.10
2021,10,16,11,18,7.30
2021,10,16,11,19,7.30
2021,10,16,11,20,9.30
2021,10,16,11,21,11.50
2021,10,16,11,22,11.00
2021,10,16,11,23,8.60
2021,10,16,11,24,7.80
2021,10,16,11,25,8.10
2021,10,16,11,26,8.70
2021,10,16,11,27,9.10
2021,10,16,11,28,7.20
2021,10,16,11,29,10.00
2021,10,16,11,30,6.00
2021,10,16,11,31,7.80
2021,10,16,11,32,10.60
2021,10,16,11,33,6.40
2021,10,16,11,34,7.40
2021,10,16,11,35,5.50
2021,10,16,11,36,6.90
2021,10,16,11,37,5.50
2021,10,16,11,38,6.40
2021,10,16,11,39,6.40
2021,10,16,11,40,2.90
2021,10,16,11,41,5.50
2021,10,16,11,42,7.70
2021,10,16,11,43,4.00
2021,10,16,11,44,5.20
2021,10,16,11,45,6.40
2021,10,16,11,46,6.00
2021,10,16,11,47,4.00
2021,10,16,11,48,3.20
2021,10,16,11,49,3.60
2021,10,16,11,50,2.60
2021,10,16,11,51,1.30
2021,10,16,11,52,1.10
2021,10,16,11,53,1.20
2021,10,16,11,54,0.80
2021,10,16,11,55,1.80
2021,10,16,11,56,1.60
2021,10,16,11,57,1.70
2021,10,16,11,58,2.90
2021,10,16,11,59,3.70
2021,10,16,12,00,3.20
2021,10,16,12,01,2.30
2021,10,16,12,02,2.00
2021,10,16,12,03,1.80
2021,10,16,12,04,3.60
2021,10,16,12,05,4.10
2021,10,16,12,06,2.40
2021,10,16,12,07,1.50
2021,10,16,12,08,4.30
2021,10,16,12,09,3.70
2021,10,16,12,10,2.70
2021,10,16,12,11,2.00
2021,10,16,12,12,3.30
2021,10,16,12,13,3.60
2021,10,16,12,14,3.70
2021,10,16,12,15,4.30
2021,10,16,12,16,1.60
2021,10,16,12,17,2.90
2021,10,16,12,18,3.30
2021,10,16,12,19,3.10
2021,10,16,12,20,3.00
2021,10,16,12,21,3.70
2021,10,16,12,22,4.40
2021,10,16,12,23,4.40
2021,10,16,12,24,3.90
2021,10,16,12,25,3.00
2021,10,16,12,26,2.90
2021,10,16,12,27,2.90
2021,10,16,12,28,3.80
2021,10,16,12,29,2.00
2021,10,16,12,30,1.30
2021,10,16,12,31,0.00
2021,10,16,12,32,0.00
2021,10,16,12,33,0.00
2021,10,16,12,34,0.00
2021,10,16,12,35,0.00
2021,10,16,12,36,0.70
2021,10,16,12,37,3.00
2021,10,16,12,38,2.50
2021,10,16,12,39,1.70
2021,10,16,12,40,0.50
2021,10,16,12,41,0.00
2021,10,16,12,42,0.00
2021,10,16,12,43,0.00
2021,10,16,12,44,0.10
2021,10,16,12,45,0.00
2021,10,16,12,46,0.70
2021,10,16,12,47,1.20
2021,10,16,12,48,1.10
2021,10,16,12,49,1.90
2021,10,16,12,50,0.00
2021,10,16,12,51,1.30
2021,10,16,12,52,0.50
2021,10,16,12,53,0.20
2021,10,16,12,54,1.20
2021,10,16,12,55,1.00
2021,10,16,12,56,0.60
2021,10,16,12,57,0.70
2021,10,16,12,58,3.00
2021,10,16,12,59,3.30
2021,10,16,13,00,2.20
2021,10,16,13,01,2.80
2021,10,16,13,02,4.40
2021,10,16,13,03,3.40
2021,10,16,13,04,0.70
2021,10,16,13,05,0.10
2021,10,16,13,06,0.10
2021,10,16,13,07,0.00
2021,10,16,13,08,0.00
2021,10,16,13,09,0.00
2021,10,16,13,10,0.10
2021,10,16,13,11,0.40
2021,10,16,13,12,1.70
2021,10,16,13,13,4.70
2021,10,16,13,14,3.70
2021,10,16,13,15,4.60
2021,10,16,13,16,2.40
2021,10,16,13,17,4.20
2021,10,16,13,18,5.70
2021,10,16,13,19,7.20
2021,10,16,13,20,9.10
2021,10,16,13,21,5.10
2021,10,16,13,22,4.00
2021,10,16,13,23,5.80
2021,10,16,13,24,4.90
2021,10,16,13,25,2.30
2021,10,16,13,26,3.50
2021,10,16,13,27,4.30
2021,10,16,13,28,5.50
2021,10,16,13,29,8.70
2021,10,16,13,30,12.50
2021,10,16,13,31,10.30
2021,10,16,13,32,10.00
2021,10,16,13,33,8.20
2021,10,16,13,34,9.30
2021,10,16,13,35,9.00
2021,10,16,13,36,4.30
2021,10,16,13,37,4.10
2021,10,16,13,38,6.70
2021,10,16,13,39,5.10
2021,10,16,13,40,1.70
2021,10,16,13,41,4.90
2021,10,16,13,42,9.50
2021,10,16,13,43,8.40
2021,10,16,13,44,7.30
2021,10,16,13,45,4.90
2021,10,16,13,46,2.40
2021,10,16,13,47,2.10
2021,10,16,13,48,0.40
2021,10,16,13,49,0.00
2021,10,16,13,50,0.00
2021,10,16,13,51,0.40
2021,10,16,13,52,2.60
2021,10,16,13,53,0.30
2021,10,16,13,54,1.30
2021,10,16,13,55,4.00
2021,10,16,13,56,1.90
2021,10,16,13,57,0.60
2021,10,16,13,58,0.90
2021,10,16,13,59,1.80
2021,10,16,14,00,1.50
2021,10,16,14,01,3.00
2021,10,16,14,02,6.40
2021,10,16,14,03,7.00
2021,10,16,14,04,9.30
2021,10,16,14,05,14.80
2021,10,16,14,06,12.70
2021,10,16,14,07,12.50
2021,10,16,14,08,12.10
2021,10,16,14,09,14.60
2021,10,16,14,10,16.30
2021,10,16,14,11,16.20
2021,10,16,14,12,16.10
2021,10,16,14,13,12.30
2021,10,16,14,14,10.40
2021,10,16,14,15,15.30
2021,10,16,14,16,17.80
2021,10,16,14,17,17.10
2021,10,16,14,18,15.50
2021,10,16,14,19,16.60
2021,10,16,14,20,15.10
2021,10,16,14,21,13.80
2021,10,16,14,22,13.60
2021,10,16,14,23,12.90
2021,10,16,14,24,14.30
2021,10,16,14,25,15.20
2021,10,16,14,26,14.40
2021,10,16,14,27,11.60
2021,10,16,14,28,14.50
2021,10,16,14,29,15.40
2021,10,16,14,30,14.80
2021,10,16,14,31,15.40
2021,10,16,14,32,15.30
2021,10,16,14,33,12.70
2021,10,16,14,34,8.00
2021,10,16,14,35,5.30
2021,10,16,14,36,3.10
2021,10,16,14,37,3.60
2021,10,16,14,38,2.90
2021,10,16,14,39,1.00
2021,10,16,14,40,3.80
2021,10,16,14,41,6.70
2021,10,16,14,42,8.50
2021,10,16,14,43,4.30
2021,10,16,14,44,2.60
2021,10,16,14,45,1.40
2021,10,16,14,46,3.60
2021,10,16,14,47,7.40
2021,10,16,14,48,4.60
2021,10,16,14,49,5.10
2021,10,16,14,50,6.40
2021,10,16,14,51,5.90
2021,10,16,14,52,4.20
2021,10,16,14,53,3.80
2021,10,16,14,54,4.00
2021,10,16,14,55,4.10
2021,10,16,14,56,5.70
2021,10,16,14,57,6.20
2021,10,16,14,58,6.00
2021,10,16,14,59,5.70
2021,10,16,15,00,5.30
2021,10,16,15,01,6.50
2021,10,16,15,02,6.90
2021,10,16,15,03,9.60
2021,10,16,15,04,8.70
2021,10,16,15,05,9.80
2021,10,16,15,06,10.00
2021,10,16,15,07,11.90
2021,10,16,15,08,12.60
2021,10,16,15,09,12.40
2021,10,16,15,10,13.10
2021,10,16,15,11,14.10
2021,10,16,15,12,14.80
2021,10,16,15,13,12.50
2021,10,16,15,14,16.90
2021,10,16,15,15,14.20
2021,10,16,15,16,16.30
2021,10,16,15,17,14.20
2021,10,16,15,18,11.00
2021,10,16,15,19,13.10
2021,10,16,15,20,13.60
2021,10,16,15,21,14.70
2021,10,16,15,22,13.80
2021,10,16,15,23,14.10
2021,10,16,15,24,15.40
2021,10,16,15,25,14.00
2021,10,16,15,26,14.30
2021,10,16,15,27,12.60
2021,10,16,15,28,11.70
2021,10,16,15,29,15.20
2021,10,16,15,30,15.30
2021,10,16,15,31,15.00
2021,10,16,15,32,13.10
2021,10,16,15,33,14.60
2021,10,16,15,34,11.20
2021,10,16,15,35,12.30
2021,10,16,15,36,11.70
2021,10,16,15,37,12.50
2021,10,16,15,38,12.40
2021,10,16,15,39,11.70
2021,10,16,15,40,8.50
2021,10,16,15,41,9.20
2021,10,16,15,42,11.40
2021,10,16,15,43,9.60
2021,10,16,15,44,8.20
2021,10,16,15,45,7.10
2021,10,16,15,46,8.20
2021,10,16,15,47,10.00
2021,10,16,15,48,10.60
2021,10,16,15,49,8.40
2021,10,16,15,50,4.30
2021,10,16,15,51,3.30
2021,10,16,15,52,4.30
2021,10,16,15,53,7.00
2021,10,16,15,54,10.40
2021,10,16,15,55,8.30
2021,10,16,15,56,3.80
2021,10,16,15,57,5.10
2021,10,16,15,58,4.20
2021,10,16,15,59,4.00
2021,10,16,16,00,2.50
2021,10,16,16,01,3.10
2021,10,16,16,02,3.60
2021,10,16,16,03,3.70
2021,10,16,16,04,2.80
2021,10,16,16,05,2.30
2021,10,16,16,06,0.80
2021,10,16,16,07,1.00
2021,10,16,16,08,2.90
2021,10,16,16,09,1.30
2021,10,16,16,10,0.60
2021,10,16,16,11,3.40
2021,10,16,16,12,4.00
2021,10,16,16,13,2.60
2021,10,16,16,14,2.50
2021,10,16,16,15,2.30
2021,10,16,16,16,4.60
2021,10,16,16,17,3.80
2021,10,16,16,18,0.50
2021,10,16,16,19,1.30
2021,10,16,16,20,0.10
2021,10,16,16,21,0.10
2021,10,16,16,22,0.10
2021,10,16,16,23,0.10
2021,10,16,16,24,1.40
2021,10,16,16,25,2.20
2021,10,16,16,26,3.50
2021,10,16,16,27,3.40
2021,10,16,16,28,3.40
2021,10,16,16,29,3.00
2021,10,16,16,30,2.40
2021,10,16,16,31,2.70
2021,10,16,16,32,2.60
2021,10,16,16,33,1.10
2021,10,16,16,34,0.20
2021,10,16,16,35,0.00
2021,10,16,16,36,0.00
2021,10,16,16,37,0.00
2021,10,16,16,38,0.00
2021,10,16,16,39,0.00
2021,10,16,16,40,0.00
2021,10,16,16,41,0.20
2021,10,16,16,42,1.30
2021,10,16,16,43,0.80
2021,10,16,16,44,0.50
2021,10,16,16,45,0.00
2021,10,16,16,46,0.00
2021,10,16,16,47,0.00
2021,10,16,16,48,0.00
2021,10,16,16,49,0.00
2021,10,16,16,50,0.00
2021,10,16,16,51,0.00
2021,10,16,16,52,0.10
2021,10,16,16,53,1.00
2021,10,16,16,54,1.90
2021,10,16,16,55,0.80
2021,10,16,16,56,0.00
2021,10,16,16,57,0.00
2021,10,16,16,58,1.20
2021,10,16,16,59,2.80
2021,10,16,17,00,2.00
2021,10,16,17,01,1.40
2021,10,16,17,02,1.10
2021,10,16,17,03,0.90
2021,10,16,17,04,1.10
2021,10,16,17,05,1.10
2021,10,16,17,06,0.10
2021,10,16,17,07,2.60
2021,10,16,17,08,3.00
2021,10,16,17,09,3.50
2021,10,16,17,10,4.30
2021,10,16,17,11,4.40
2021,10,16,17,12,4.20
2021,10,16,17,13,3.60
2021,10,16,17,14,3.90
2021,10,16,17,15,4.30
2021,10,16,17,16,3.40
2021,10,16,17,17,2.40
2021,10,16,17,18,0.30
2021,10,16,17,19,0.50
2021,10,16,17,20,3.10
2021,10,16,17,21,4.10
2021,10,16,17,22,4.40
2021,10,16,17,23,3.90
2021,10,16,17,24,3.40
2021,10,16,17,25,2.60
2021,10,16,17,26,1.70
2021,10,16,17,27,1.00
2021,10,16,17,28,0.00
2021,10,16,17,29,0.30
2021,10,16,17,30,1.00
2021,10,16,17,31,1.60
2021,10,16,17,32,1.00
2021,10,16,17,33,1.40
2021,10,16,17,34,1.20
2021,10,16,17,35,0.00
2021,10,16,17,36,2.70
2021,10,16,17,37,6.30
2021,10,16,17,38,6.40
2021,10,16,17,39,5.30
2021,10,16,17,40,5.00